Weather History for KFSD - February, 2014

Change the Weather History Date:

Tuesday, February 4, 2014

  Actual Average Record
Temperature  
Mean Temperature 6 °F 18 °F  
Max Temperature 11 °F 28 °F 61 °F (2005)
Min Temperature 0 °F 9 °F -29 °F (1899)
Degree Days  
Heating Degree Days 59 47  
Month to date heating degree days 225 188  
Since 1 July heating degree days 5089 4820  
Cooling Degree Days 0 0  
Month to date cooling degree days 0 0  
Year to date cooling degree days 0 0  
Moisture  
Dew Point -4 °F    
Average Humidity 73    
Maximum Humidity 83    
Minimum Humidity 62    
Precipitation  
Precipitation T in 0.01 in 0.92 in (1945)
Month to date precipitation T 0.07  
Year to date precipitation 0.31 0.63  
Snow  
Snow 0.20 in 0.20 in 10.50 in (1945)
Month to date snowfall 0.2 1.0  
Since 1 July snowfall 25.4 25.6  
Snow Depth 1.00 in    
Sea Level Pressure  
Sea Level Pressure 30.49 in    
Wind  
Wind Speed 16 mph (NNE)    
Max Wind Speed 24 mph    
Max Gust Speed 29 mph    
Visibility 8 miles    
Events Snow    
T = Trace of Precipitation, MM = Missing Value Source: NWS Daily Summary

Daily Weather History Graph

Daily Weather History Graph

Search for Another Location

Airport or City:

Trip Planner

Search our weather history database for the weather conditions in past years. The results will help you decide how hot, cold, wet, or windy it might be!

Date:

Astronomy

Feb. 04, 2014 Rise Set
Actual Time 7:39 AM CST 5:42 PM CST
Civil Twilight 7:09 AM CST 6:12 PM CST
Nautical Twilight 6:35 AM CST 6:46 PM CST
Astronomical Twilight 6:02 AM CST 7:20 PM CST
Moon 10:07 AM CST (2/4) 11:50 PM CST (2/4)
Length of Visible Light 11h 03m
Length of Day
10h 02m
Waxing Crescent, 29% of the Moon is Illuminated
Feb 4
Waxing Crescent
Feb 6
First Quarter
Feb 14
Full
Feb 22
Last Quarter
Mar 1
New

Hourly Weather History & Observations

Time (CST) Temp. Windchill Dew Point Humidity Pressure Visibility Wind Dir Wind Speed Gust Speed Precip Events Conditions
12:51 AM 10.4 °F -4.1 °F 3.2 °F 73% 30.32 in 2.5 mi NE 11.5 mph - 0.00 in Snow Light Snow
12:56 AM 10.0 °F -2.9 °F 3.9 °F 76% 30.41 in 2.5 mi NE 9.2 mph - 0.00 in Snow Light Snow
1:07 AM 10.0 °F -2.9 °F 3.9 °F 76% 30.32 in 3.0 mi NE 9.2 mph - 0.00 in Snow Light Snow
1:25 AM 10.0 °F -2.9 °F 3.9 °F 76% 30.32 in 4.0 mi NE 9.2 mph - 0.00 in Snow Light Snow
1:56 AM 10.0 °F -3.7 °F 3.9 °F 76% 30.41 in 8.0 mi NE 10.4 mph - 0.00 in Snow Light Snow
2:56 AM 10.0 °F -4.5 °F 5.0 °F 80% 30.42 in 5.0 mi NE 11.5 mph - 0.00 in Snow Light Snow
3:45 AM 10.0 °F -4.5 °F 6.1 °F 84% 30.33 in 5.0 mi NE 11.5 mph - 0.00 in Snow Light Snow
3:56 AM 10.0 °F -5.2 °F 6.1 °F 84% 30.42 in 4.0 mi NE 12.7 mph - 0.00 in Snow Light Snow
4:56 AM 10.0 °F -6.5 °F 5.0 °F 80% 30.44 in 5.0 mi NE 15.0 mph - 0.00 in Snow Light Snow
5:56 AM 3.9 °F -15.6 °F -2.0 °F 76% 30.47 in 10.0 mi NNE 17.3 mph - 0.00 in   Overcast
6:56 AM 1.9 °F -16.9 °F -4.0 °F 76% 30.48 in 10.0 mi NNE 15.0 mph - N/A   Overcast
7:56 AM 1.9 °F -18.1 °F -5.1 °F 72% 30.51 in 9.0 mi NNE 17.3 mph - 0.00 in Snow Light Snow
8:12 AM 1.9 °F -16.9 °F -5.1 °F 72% 30.40 in 9.0 mi NNE 15.0 mph - 0.00 in Snow Light Snow
8:56 AM 1.9 °F -18.1 °F -7.1 °F 66% 30.51 in 9.0 mi NNE 17.3 mph - 0.00 in Snow Light Snow
9:56 AM 1.9 °F -18.1 °F -7.1 °F 66% 30.53 in 9.0 mi NE 17.3 mph 24.2 mph 0.00 in Snow Light Snow
10:56 AM 3.0 °F -16.1 °F -7.1 °F 63% 30.53 in 9.0 mi NNE 16.1 mph 24.2 mph 0.00 in Snow Light Snow
11:56 AM 3.0 °F -16.7 °F -6.0 °F 66% 30.52 in 9.0 mi NNE 17.3 mph - 0.00 in Snow Light Snow
12:56 PM 3.0 °F -16.7 °F -6.0 °F 66% 30.53 in 9.0 mi NE 17.3 mph - 0.00 in Snow Light Snow
1:56 PM 3.9 °F -15.0 °F -5.1 °F 66% 30.51 in 4.0 mi NNE 16.1 mph - 0.00 in Snow Light Snow
2:56 PM 3.9 °F -17.6 °F -7.1 °F 60% 30.50 in 10.0 mi NNE 21.9 mph 28.8 mph 0.00 in   Overcast
3:56 PM 3.9 °F -16.1 °F -7.1 °F 60% 30.51 in 10.0 mi NNE 18.4 mph 27.6 mph N/A   Overcast
4:56 PM 3.0 °F -16.7 °F -7.1 °F 63% 30.52 in 10.0 mi North 17.3 mph - N/A   Overcast
5:56 PM 1.9 °F -16.9 °F -9.0 °F 60% 30.54 in 10.0 mi North 15.0 mph - N/A   Overcast
6:56 PM 1.0 °F -19.9 °F -9.0 °F 63% 30.56 in 10.0 mi North 18.4 mph 24.2 mph N/A   Overcast
7:56 PM 1.0 °F -19.3 °F -9.9 °F 60% 30.58 in 10.0 mi North 17.3 mph - N/A   Overcast
8:56 PM -0.0 °F -20.1 °F -9.9 °F 63% 30.59 in 10.0 mi North 16.1 mph 24.2 mph N/A   Overcast
9:56 PM 1.0 °F -19.3 °F -9.9 °F 60% 30.60 in 9.0 mi North 17.3 mph - 0.00 in Snow Light Snow
10:56 PM 1.0 °F -18.0 °F -9.0 °F 63% 30.61 in 7.0 mi North 15.0 mph - 0.00 in Snow Light Snow
11:56 PM 1.0 °F -21.9 °F -8.0 °F 66% 30.62 in 6.0 mi North 23.0 mph 27.6 mph 0.00 in Snow Light Snow